Showing default

ROBUSTA-3A, 60243

Orbit data source: Space-Track

ROBUSTA-3A, 60243 is a payload satellite owned by Montpellier (FR) in LEO that was launched on Tue, 09 Jul 2024 UTC via an ARIANE 62 launch vehicle from the French Guiana (FRGUI). Payload-class satellites include a variety of spacecraft equipped with specific instruments for various scientific and technological missions. These include communications satellites like Starlink; space stations such as the ISS; scientific satellites like the Hubble; Earth observation satellites from companies like Planet Labs, Umbra, and HawkEye 360; GPS; miniature CubeSats for education and research; and military/defense satellites.

Loading next visibility...
Identifier
60243, 2024-128J
Orbit
LEO
Last TLE update
16 hours ago
Origin
Manufacturer
Montpellier
Mission
Operational Amateur Technology
Bus & Motor
CUBESAT 3U, Unknown motor
Mass
5 kg wet, 5 kg dry
Launch date (UTC)
2024-07-09 (1 year ago)
Launch vehicle
ARIANE 62
Launch site
French Guiana (FRGUI)
Object type
Payload
Rocket body
Debris
Shape & HBR
Box + 4 Pan, 0.7 m
Radar Cross Section
0.072 m², Small (<0.1 m²)

Expand to show TLE details & history

TLE from 16 hours ago
0 ROBUSTA-3A
1 60243U 24128J   25191.73955086  .00003741  00000-0  26917-3 0  9996
2 60243  61.9899 329.6517 0053043  58.2602 302.3644 15.05014284 54911
Epoch: 2025-07-10T17:44Z
TLE epoch observation values (Epoch: 2025-07-10T17:44:57.194Z)
Latitude
0.00004°
Longitude
134.51191°
Altitude
533.696 km
Speed
7.607 km/s
True Right ascension
21h 58m 36s
True Declination
0° 00' 00"
Sunlit
Object was in full shadow at epoch
Visualization orbit readout
Latitude
-56.92654°
Longitude
77.9053°
Altitude
595.665 km
Speed
7.549 km/s
Apparent Right ascension
12h 59m 04s
Apparent Declination
-68° 15' 18"
Sunlit
Object is in full shadow
Visualization observer readout
Local Sidereal Time
21:40:23
Azimuth
206.822° SW
Elevation
-51.252°
Doppler factor
1
Orbital elements
Apogee altitude
587.142 km
Perigee altitude
513.64 km
Semi-major axis
6,928.528 km
Eccentricity
0.0053
Inclination
61.9899°
RAAN
329.6517°
Arg. of periapsis
58.2602°
True anomaly
Unknown
Mean anomaly
302.3644°
Eccentric anomaly
Unknown
Mean motion
3.76341 °/min
Orbital period
95.66 mins
BSTAR
0.00026917
Loading maneuver chart data...
Loading SW <> Apogee altitude chart data...
Loading historical data...
Loading historical data...
Loading historical data...
Loading historical data...
Loading historical data...
Loading historical data...
Loading historical data...

ROBUSTA-3A Visibility forecast

Observer location: undefined°, undefined°

Span
Click to sort rows by Start time (UTC) header in descending order
Start Az.
Max El. time (UTC)
Max El. Az.
Max El.
End time (UTC)
End Az.
6 mins2025-07-11 11:27:41.422Z231.237° WSW2025-07-11 11:29:41.422Z276.687° WNW40.689°2025-07-11 11:33:41.422Z29.467° NE
6 mins2025-07-11 19:48:41.422Z314.556° NW2025-07-11 19:51:41.422Z195.508° SSW40.798°2025-07-11 19:54:41.422Z155.866° SSE
|